Location: Newark
(31.0436°N, 112.2008°E)
Time: 00:23:15
(UTC+00:00)

N. Korean satellite - Pass Details

Date: 31 January 2020
Orbit: 456 x 505 km, 97.2° (Epoch: 24 February)

Event Time Altitude Azimuth Distance (km) Brightness Sun altitude
Rises 10:33:12 0° 207° (SSW) 2,457 10.9 -6.6°
Reaches altitude 10° 10:36:09 10° 237° (WSW) 1,590 10.6 -7.2°
Maximum altitude 10:37:46 13° 266° (W) 1,427 10.4 -7.5°
Drops below altitude 10° 10:39:23 10° 294° (WNW) 1,599 10.0 -7.8°
Sets 10:42:24 0° 324° (NW) 2,484 10.5 -8.5°
